Location: Bas-Clignon
(44.2000°N, 6.6333°E)
Time: 13:15:31
(UTC+00:00)

Daily predictions for brighter satellites

Satellite Brightness Start Highest point End
(mag) Time Altitude Azimuth Time Altitude Azimuth Time Altitude Azimuth
Radarsat Rocket 4.1 17:07:10 10° SSE 17:13:06 65° ENE 17:19:43 10° NNW
COSMO-SKYMED 1 3.1 17:10:47 10° NNE 17:14:51 37° E 17:18:53 10° SSE
USA 281 4.2 17:09:17 10° NNE 17:15:30 47° WNW 17:21:43 10° SW
Cosmos 2263 Rocket 2.9 17:13:08 10° NNW 17:18:37 59° WSW 17:24:03 10° S
Cosmos 407 Rocket 3.6 17:14:29 10° SSW 17:19:39 80° WNW 17:24:48 10° NNE
BREEZE-M DEB (TANK) 2.5 17:17:39 10° W 17:20:35 71° N 17:26:38 10° E
ATLAS CENTAUR R/B 3.0 17:17:00 10° WSW 17:21:20 35° NW 17:25:33 10° NNE
Cosmos 1140 Rocket 4.2 17:23:17 10° SW 17:28:23 57° WNW 17:33:29 10° NNE
Cosmos 1726 Rocket 4.2 17:26:35 10° NNE 17:30:25 31° ENE 17:34:16 10° SE
ISS -3.4 17:30:24 10° WNW 17:33:45 66° SW 17:37:06 10° SE
Cosmos 1655 Rocket 4.2 17:28:43 10° N 17:35:00 79° W 17:41:11 10° S
DMSP B5D2-2 4.1 17:30:15 10° NNE 17:35:34 89° WNW 17:40:50 10° SSW
Cosmos 1190 Rocket 4.1 17:34:15 10° SSW 17:39:33 86° WNW 17:44:53 10° NNE
SL-08 ROCKET BODY 4.3 17:33:53 10° N 17:39:46 72° E 17:45:35 10° SSE
PSLV R/B 4.4 17:38:31 10° SE 17:41:45 31° ENE 17:45:03 10° N
Cosmos 1633 3.2 17:39:08 10° SSE 17:42:05 29° E 17:45:02 10° NNE
Cosmos 1461 3.2 17:38:44 10° SSW 17:42:50 52° ESE 17:47:01 11° NE
Okean O Rocket 2.8 17:40:34 10° ESE 17:43:50 21° ENE 17:47:08 10° NNE
Cosmos 1408 3.0 17:40:30 10° SSW 17:43:50 59° W 17:47:15 10° N
Cosmos 1844 Rocket 2.8 17:43:42 10° NNW 17:49:11 54° ENE 17:54:37 10° SE
Meteor 1-11 4.2 17:47:05 10° S 17:52:53 75° E 17:58:41 10° NNE
CZ-4B DEB 4.1 17:47:28 10° SSE 17:52:53 76° ENE 17:58:22 10° NNW
Lacrosse 5 rocket 2.1 17:51:23 10° NNW 17:54:31 27° NNE 17:55:53 21° ENE
CZ-4B R/B 3.5 17:50:22 10° SE 17:55:22 42° ENE 18:00:29 10° N
Cosmos 1553 Rocket 4.1 17:54:49 10° SSE 18:00:39 52° E 18:06:36 10° NNE
SKYMED 2 4.0 17:58:44 10° N 18:03:03 66° WNW 18:07:21 10° SSW
CZ-4 R/B 2.0 18:00:38 10° SE 18:04:19 33° ENE 18:07:59 10° N
Cosmos 1844 3.7 17:59:27 10° NNW 18:05:14 63° ENE 18:10:55 10° SE
PLATFORM 4.5 18:01:39 10° NNW 18:05:28 78° NE 18:09:11 10° SE
Cosmos 1892 3.4 18:02:03 10° SSW 18:05:41 55° W 18:09:23 10° N
SKYMED 3 4.4 18:01:52 10° NNE 18:06:01 88° WNW 18:10:10 10° SSW
Cosmos 468 Rocket 3.9 18:02:47 10° NNW 18:07:59 84° ENE 18:13:07 10° SSE
Cosmos 2058 Rocket 3.3 18:03:47 10° N 18:08:00 43° ENE 18:12:13 10° SSE
Cosmos 44 Rocket 4.0 18:05:03 10° S 18:09:07 30° ESE 18:10:25 26° E
Cosmos 2360 Rocket 2.1 18:04:18 10° SSW 18:09:53 69° ESE 18:15:32 10° NNE
Cosmos 2219 Rocket 2.9 18:05:15 10° SSE 18:10:05 31° ESE 18:12:21 23° ENE
CZ-4C R/B 3.7 18:06:47 10° N 18:10:33 60° WNW 18:14:07 10° SSW
YAOGAN 1 2.5 18:06:49 10° SSE 18:11:04 64° ENE 18:15:21 10° N
Cosmos 1825 2.3 18:11:58 10° SSW 18:15:38 70° W 18:19:20 10° N
Atlas Centaur 2 4.4 18:10:44 10° SSW 18:16:57 24° SSE 18:21:46 15° ESE
RESURS DK-1 2.3 18:13:37 10° NNW 18:17:43 63° ENE 18:20:31 19° SE
Cosmos 2333 Rocket 2.3 18:12:41 10° S 18:18:08 53° ESE 18:22:21 17° NE
IGS 5A 4.3 18:20:50 29° NE 18:20:50 29° NE 18:23:43 10° N
Cosmos 2278 Rocket 3.9 18:16:46 10° N 18:19:41 16° NE 18:19:41 16° NE
MOS 1-B 4.2 18:15:26 10° SSE 18:21:12 75° ENE 18:27:01 10° NNW
Cosmos 2322 Rocket 2.5 18:16:34 10° SW 18:22:08 67° WNW 18:27:45 10° NNE
USA 215 4.2 18:16:14 10° SSE 18:22:31 48° SW 18:28:50 10° WNW
Cosmos 1763 Rocket 4.2 18:20:08 10° NNW 18:25:11 55° WSW 18:30:09 10° S
Meteor 2-12 Rocket 4.5 18:20:45 10° N 18:26:51 82° W 18:32:53 10° S
Cosmos 1850 Rocket 3.9 18:23:47 10° S 18:28:53 61° ESE 18:32:18 21° NNE
USA 81 4.4 18:24:56 10° SSE 18:29:48 39° E 18:34:41 10° NNE
BlueWalker 3 3.6 18:29:37 10° NW 18:32:42 22° N 18:33:03 21° NNE
Lacrosse 5 2.5 18:27:59 10° WSW 18:32:58 51° NW 18:35:50 24° NNE
SL-4 R/B 3.0 18:29:56 10° NW 18:33:02 27° N 18:33:03 27° N
ATLAS 2AS CENTAUR R/B 3.2 18:26:34 10° NW 18:33:22 59° WSW 18:39:47 10° SSE
COSMOS 2428 3.6 18:28:35 10° SSE 18:32:20 27° ESE 18:32:20 27° ESE
S3M 4.0 18:29:36 10° S 18:35:51 59° E 18:42:06 10° NNE
Feng Yun 1-1 Rocket 4.2 18:30:29 10° SSE 18:35:58 62° ENE 18:41:22 10° N
IRIDIUM 104 4.3 18:30:56 10° N 18:36:11 85° W 18:41:24 10° S
Cosmos 1741 Rocket 3.9 18:31:28 10° S 18:36:44 68° ESE 18:40:08 22° NNE
SL-16 R/B 3.5 18:31:43 10° WSW 18:36:57 38° NW 18:42:14 10° NNE
Cosmos 841 Rocket 3.4 18:32:39 10° NNW 18:37:56 73° ENE 18:42:08 16° SSE
Cosmos 2333 4.0 18:33:44 10° SSW 18:39:19 75° ESE 18:42:55 23° NNE
Cosmos 540 Rocket 3.8 18:34:13 10° NNW 18:39:20 65° WSW 18:44:23 10° S
Cosmos 1340 2.5 18:35:57 10° N 18:39:38 88° WSW 18:41:59 21° S
CSL-04 Debris 4.4 18:39:41 42° E 18:40:22 44° ENE 18:45:28 10° N
CSL-04 Rocket 4.0 18:47:07 43° NE 18:47:07 43° NE 18:51:46 10° N
Cosmos 1892 Rocket 4.5 18:42:35 10° SSW 18:46:52 48° WNW 18:51:08 10° N
Spot 1 3.8 18:51:47 56° N 18:52:38 86° WNW 18:56:42 10° SSW
Cosmos 2315 Rocket 4.1 18:49:11 10° SSE 18:55:14 50° E 19:01:22 10° NNE
Genesis I 4.1 18:55:28 10° SW 18:59:16 45° NW 18:59:51 42° NNW
Cosmos 2322 3.6 18:54:15 10° S 18:59:53 64° ESE 19:00:25 61° E
Cosmos 1943 Rocket 4.4 18:57:39 10° NNE 18:57:55 11° NNE 18:57:55 11° NNE
Okean O Rocket 2.8 19:15:45 10° S 19:19:53 41° W 19:24:05 10° NNW
Cosmos 1745 Rocket 4.5 19:17:16 10° NNW 19:23:23 58° W 19:29:23 10° S
Lacrosse 5 rocket 3.6 19:30:00 10° WNW 19:31:19 20° WNW 19:31:19 20° WNW
CZ-4 R/B 3.8 19:36:02 10° SW 19:39:15 22° W 19:42:27 10° NW
Cosmos 1709 Rocket 4.2 19:35:50 10° NNW 19:41:55 65° W 19:43:12 52° SW
Cosmos 2219 Rocket 3.2 19:48:37 10° SW 19:53:52 41° WNW 19:54:10 41° NW
Cosmos 2360 Rocket 4.3 19:50:07 10° W 19:54:26 22° NW 19:57:41 14° N
Cosmos 2333 Rocket 4.0 19:57:58 10° WSW 20:02:43 27° NW 20:04:26 23° NNW
Cosmos 2278 Rocket 4.0 19:59:29 10° NNW 20:01:32 23° NNW 20:01:32 23° NNW
Atlas Centaur 2 4.2 19:58:28 10° WSW 20:04:16 29° SSW 20:04:16 29° SSW
Lacrosse 5 4.3 20:13:02 10° WNW 20:15:03 18° NW 20:15:03 18° NW
